RH
97 97 96 91 86 84 81 78 75 76 75 72 67 62 56 55 56 64 56 48 67 65 50 44 38 41 40 43 78 54 60 66 90 99 98 92 98 74 56 40 77 82 91 95 77 87 85 34 37 77 66 59 63 64
100 99 98 92 87 86 84 84 82 81 81 78 72 67 62 55 52 60 56 53 58 56 62 63 65 63 53 48 41 56 45 57 65 81 89 89 99 96 93 70 26 56 64 69 67 69 49 46 54 61 63 65 70 70
100 100 99 95 90 88 85 88 88 86 84 82 78 74 68 60 52 63 65 69 56 88 62 59 58 63 62 63 58 62 69 39 48 54 85 93 100 87 99 80 54 35 30 70 60 43 36 53 63 62 62 66 62 62
100 100 100 100 96 92 88 88 88 88 87 85 82 78 73 67 62 71 67 75 64 83 100 72 61 59 66 64 59 58 52 57 58 71 98 100 98 54 93 67 69 52 42 50 57 44 46 69 70 71 61 62 58 41
100 100 100 100 100 94 94 89 88 90 90 88 86 82 77 71 75 82 81 80 73 67 94 82 58 63 61 61 58 55 54 60 77 97 100 99 86 83 93 87 87 49 50 70 76 62 61 72 72 66 61 54 42 34
98 99 98 100 100 100 98 92 90 89 94 94 91 88 83 75 72 76 60 77 77 75 95 95 64 60 58 59 57 57 53 58 62 83 94 79 47 78 100 89 51 36 38 39 55 59 68 70 69 58 48 42 32 34
84 89 90 92 94 96 100 98 95 90 93 95 96 93 88 82 86 73 69 86 75 74 98 94 91 66 64 57 62 67 74 79 74 81 99 90 80 66 100 95 47 40 39 43 49 63 73 61 60 47 36 33 30 24
78 78 79 80 81 84 89 97 99 97 91 93 95 93 92 87 83 76 77 78 78 73 85 99 98 92 67 96 96 68 96 91 90 89 98 95 84 100 100 71 51 43 44 51 55 56 62 65 42 36 31 25 25 27
82 78 75 72 74 73 75 81 92 99 97 96 99 100 98 92 90 94 76 75 76 82 90 100 99 99 68 91 96 94 87 100 91 100 100 95 100 99 77 67 58 50 54 52 46 41 40 38 34 27 26 26 30 32
82 82 80 80 78 73 85 78 79 94 100 100 100 99 100 100 98 88 73 89 91 87 92 100 76 98 70 99 100 100 100 100 100 99 89 100 98 80 60 55 51 53 50 49 53 51 41 39 32 30 30 32 38 41
81 84 85 86 84 88 83 94 93 100 100 99 99 100 100 100 96 96 100 100 100 100 100 98 95 93 81 94 100 100 100 99 100 94 98 99 91 69 63 55 54 54 48 44 38 34 28 29 31 34 44 48 52 53
80 85 88 89 85 83 98 100 100 95 100 99 97 99 94 94 99 100 100 100 100 99 100 100 100 92 99 82 94 99 100 100 99 78 100 91 64 56 59 56 50 45 40 33 30 29 30 30 34 47 54 55 57 62
85 87 88 95 94 93 92 92 94 95 88 86 91 98 98 100 100 100 99 100 100 100 100 100 100 100 99 96 100 100 100 100 94 99 90 68 61 53 51 47 46 40 38 38 30 30 34 38 48 54 65 60 65 74
84 84 91 84 95 92 87 83 82 81 83 98 100 100 100 100 100 100 100 100 100 100 100 100 100 100 100 100 100 100 100 98 96 94 85 67 50 45 45 47 43 45 52 45 47 46 48 53 60 65 64 62 76 89
76 75 89 93 83 96 90 87 74 75 79 94 100 99 99 100 100 100 100 100 100 99 100 100 100 99 100 100 100 100 98 96 94 96 94 76 68 59 58 48 46 60 73 66 48 47 47 52 63 72 70 73 81 84
69 82 98 96 94 98 98 88 86 89 74 81 94 100 100 100 100 100 100 100 99 100 100 100 100 100 99 100 98 98 96 94 100 94 81 67 68 69 62 60 48 46 52 55 54 53 52 54 63 71 76 79 77 76
76 91 99 98 96 90 90 93 87 77 80 98 95 100 100 100 100 100 100 99 98 100 100 100 99 97 97 96 95 94 98 95 89 81 74 68 64 62 49 48 50 54 57 56 55 55 57 58 65 73 87 82 77 73
82 91 98 94 91 91 97 96 92 80 85 73 89 95 95 100 100 98 98 97 99 89 87 96 78 91 89 85 78 84 77 82 78 75 62 59 49 52 52 57 50 50 53 54 54 56 61 66 77 79 79 74 68 62
93 90 97 99 100 92 99 99 87 80 76 76 89 83 86 89 92 96 100 96 83 82 91 88 95 80 79 75 90 99 97 89 75 61 55 48 49 53 55 56 56 58 60 59 59 62 61 59 63 66 70 69 70 75
87 85 99 100 98 98 99 88 76 65 74 70 74 76 88 92 92 100 100 100 93 98 95 89 80 81 78 73 74 80 75 64 68 71 65 57 43 47 53 55 58 57 60 60 60 60 63 64 63 63 64 69 80 95
100 99 100 98 100 98 87 72 72 65 65 72 79 72 86 86 92 94 97 93 100 81 66 60 84 71 61 60 58 58 58 56 62 68 66 63 51 55 58 58 56 59 62 66 74 75 81 84 81 82 84 95 100 100
100 100 99 100 100 99 90 73 74 66 75 76 75 69 86 87 87 83 83 85 71 62 56 59 57 56 61 65 56 54 53 54 55 56 53 55 65 62 61 59 60 67 72 75 75 78 86 87 90 91 94 97 96 98
99 100 100 100 100 99 95 82 84 68 84 87 74 84 83 79 78 74 80 66 62 50 49 47 48 54 58 54 50 52 52 54 53 51 54 57 57 59 60 63 64 70 76 74 77 82 85 90 94 100 100 99 98 98
99 99 99 98 99 92 86 83 64 68 70 73 74 79 74 75 74 78 75 64 52 50 51 50 50 49 52 54 46 43 53 54 54 54 58 60 61 61 62 63 66 68 69 76 83 84 92 89 91 100 99 97 96 92
99 97 98 95 92 81 80 80 77 75 78 77 76 78 84 78 80 73 74 73 93 88 89 87 65 50 53 63 63 66 81 92 90 86 77 76 84 92 86 86 81 78 82 88 93 100 100 100 99 96 99 97 96 96
95 95 95 91 85 79 75 81 78 76 76 79 77 79 81 78 78 70 62 94 95 90 93 92 86 76 68 70 69 78 87 90 89 85 80 89 92 93 92 90 90 89 94 98 99 99 99 98 98 98 97 96 97 97
93 85 76 65 65 72 84 89 87 83 78 76 77 82 80 80 70 82 76 86 86 88 82 85 82 77 74 74 80 85 92 96 93 92 89 91 99 97 97 96 94 97 96 96 96 97 98 98 98 98 98 97 96 97
78 76 83 82 77 72 78 75 79 76 72 58 72 77 74 64 83 87 84 84 87 84 80 83 86 85 84 86 89 95 94 87 86 77 73 96 86 93 92 96 96 96 96 97 96 96 96 97 97 97 97 97 96 96
81 76 75 88 80 81 76 72 69 55 53 65 73 68 86 80 89 87 90 90 92 88 83 82 89 93 90 87 92 99 95 92 90 87 84 86 84 86 94 96 97 97 98 97 94 94 95 96 96 96 95 96 95 96
88 88 79 81 83 79 86 91 90 92 70 86 76 70 76 84 92 95 94 92 87 90 93 94 93 90 88 88 88 84 98 99 94 93 90 91 94 98 98 99 99 97 98 97 98 93 91 92 93 96 95 95 94 96
80 78 80 78 80 93 95 92 94 93 91 83 93 90 89 87 92 95 95 97 94 94 89 86 87 93 90 89 90 86 85 92 92 97 97 95 94 97 98 100 100 99 98 96 96 96 97 94 96 96 95 95 96 97
78 79 76 77 90 90 83 84 82 83 82 86 86 87 90 90 89 88 96 98 92 87 92 91 88 90 96 97 96 96 91 95 96 96 96 97 99 97 100 100 100 99 100 99 99 97 96 96 96 96 96 97 96 98
79 78 79 78 74 73 81 76 61 63 73 69 83 78 85 89 90 89 97 98 96 94 95 96 97 96 98 100 87 99 94 92 90 96 97 97 98 99 98 100 99 100 100 97 96 98 96 96 97 97 98 98 99 100
Wind_Speed
29 27 25 22 20 18 17 15 13 11 8 6 4 5 6 5 6 6 4 6 4 3 4 5 2 3 1 5 4 8 4 1 2 3 3 2 1 3 1 3 6 7 6 4 4 3 6 1 3 2 5 7 6 7
28 26 25 22 19 17 16 15 13 11 8 6 4 4 5 5 4 4 3 7 9 3 4 5 7 8 7 9 3 7 1 6 4 3 2 1 2 1 3 2 6 4 6 4 9 5 7 7 4 6 7 7 5 5
29 27 24 22 19 16 15 14 12 10 9 6 4 4 5 5 4 6 5 4 4 2 4 4 3 6 6 9 6 3 1 2 5 4 4 3 3 4 4 4 2 3 7 3 3 8 9 6 10 11 6 4 3 4
20 26 24 22 19 15 14 13 11 9 8 6 4 3 4 6 7 7 4 5 3 5 4 3 2 3 4 4 4 5 6 9 6 4 3 3 3 8 5 6 4 4 6 6 9 11 4 9 7 4 3 1 3 2
21 22 20 21 19 17 15 14 12 10 9 7 5 3 3 5 7 7 6 6 4 4 3 2 1 2 2 1 4 4 8 5 2 2 2 3 3 1 3 0 3 5 7 5 7 1 3 5 6 3 2 4 2 3
23 24 19 15 14 16 16 15 13 11 9 7 6 4 2 2 3 1 2 4 4 5 3 2 3 1 1 2 5 4 6 2 3 3 3 3 3 3 3 4 6 8 6 4 2 8 9 7 4 4 2 1 1 5
22 19 17 17 14 9 12 16 14 12 10 7 5 4 3 2 4 3 1 0 3 3 3 2 2 2 4 4 2 3 6 2 0 1 3 2 2 2 3 5 6 7 9 1 7 8 4 5 3 6 4 1 3 8
17 17 17 16 13 11 7 7 16 15 12 10 7 5 3 2 2 1 4 6 5 3 2 3 2 1 2 2 2 3 2 2 0 1 1 2 0 2 4 8 11 14 4 5 4 3 6 9 5 6 2 4 6 8
16 16 14 12 11 11 6 4 8 17 16 13 9 5 3 1 1 0 4 3 2 2 2 2 5 4 4 2 2 1 0 1 0 1 2 2 3 6 7 7 9 5 7 6 7 8 8 4 2 2 3 6 7 8
14 15 14 12 10 11 11 2 4 12 19 16 10 3 1 2 5 8 1 1 1 1 1 3 3 3 4 2 1 2 2 2 2 3 3 2 3 8 10 4 1 7 7 8 7 6 5 1 1 3 6 8 8 10
13 13 14 14 13 11 13 7 8 14 12 5 3 2 2 7 3 2 2 2 2 2 2 1 4 5 3 3 3 1 3 2 3 3 3 3 3 6 10 5 3 9 10 7 6 7 4 3 3 5 5 7 7 9
12 12 12 13 15 16 13 14 15 6 6 7 12 8 4 3 2 3 3 1 3 3 2 2 1 3 2 1 2 2 3 2 5 6 2 3 3 9 10 10 10 10 10 9 6 3 3 4 6 6 5 8 9 13
10 10 10 11 11 15 16 15 19 20 11 7 7 4 2 1 2 3 4 2 1 1 1 1 2 2 2 2 2 2 5 4 1 3 2 2 6 7 8 9 8 12 15 12 5 5 6 7 7 8 9 13 15 15
5 7 7 7 9 9 12 11 8 6 6 3 2 3 2 2 1 2 2 2 1 2 3 2 2 1 1 2 2 3 1 2 2 3 4 2 6 8 8 7 7 10 9 4 4 6 6 6 9 11 14 17 17 17
4 4 4 5 5 8 5 2 6 6 2 2 0 2 2 1 2 1 2 1 3 1 2 2 2 1 1 2 1 2 3 2 2 1 2 3 7 9 8 7 7 5 4 2 5 8 10 11 12 15 17 17 16 17
3 4 3 3 5 6 5 3 5 5 3 2 2 2 1 2 1 1 1 2 1 1 1 2 2 0 2 1 2 1 1 1 2 2 2 5 7 6 5 6 5 3 6 7 10 11 13 14 15 17 16 17 23 21
4 2 4 6 9 8 5 4 4 3 2 1 2 2 2 3 2 1 0 2 1 1 2 1 1 4 1 1 1 1 2 2 2 2 3 5 4 4 4 1 3 6 8 10 13 14 15 16 16 17 15 20 18 18
2 2 5 8 8 6 3 4 2 1 1 1 1 3 2 3 2 2 2 1 1 1 1 2 2 1 0 1 1 2 2 2 1 2 3 3 3 4 5 8 11 10 11 13 14 16 16 17 15 16 19 21 16 12
3 3 4 11 3 3 3 3 3 1 1 2 2 2 2 2 3 5 3 4 4 3 2 1 1 2 1 2 1 1 2 2 0 2 1 6 7 9 6 7 10 12 14 13 14 13 14 17 19 20 20 17 14 13
6 2 2 9 6 3 2 1 2 0 2 2 3 3 2 2 1 1 1 2 0 1 1 2 2 1 1 2 2 2 2 1 1 2 3 4 8 4 6 9 10 12 13 14 14 15 16 17 18 20 20 17 12 8
6 5 8 8 3 5 1 2 1 1 2 1 4 4 2 2 2 1 1 1 2 2 2 2 1 1 1 3 2 3 3 3 3 2 3 4 7 9 10 12 13 12 11 11 13 16 17 16 19 20 21 13 9 12
4 10 6 2 2 1 1 1 1 3 2 2 3 3 3 2 3 2 2 3 3 3 2 2 2 1 2 3 4 4 3 4 6 7 9 10 5 7 9 10 9 10 12 14 16 17 18 18 18 20 17 13 14 15
8 6 3 3 2 3 3 2 2 3 3 4 3 3 2 2 2 1 2 3 3 2 4 4 2 2 4 4 3 4 4 4 6 8 10 11 12 13 14 14 16 17 16 18 16 15 15 16 19 17 17 13 14 13
7 1 1 1 1 3 3 2 2 3 3 3 4 3 3 2 2 2 2 2 0 4 2 1 1 2 5 3 2 4 11 11 10 10 13 15 13 16 19 20 21 22 23 21 18 19 18 19 19 15 12 12 13 14
3 2 2 3 2 4 4 5 3 3 3 3 4 3 3 3 3 3 2 3 6 5 5 11 8 5 3 5 11 12 19 19 15 14 16 18 19 20 20 20 22 22 23 25 24 19 15 12 13 13 10 13 15 15
2 1 2 2 3 2 4 5 5 4 4 3 2 3 3 3 3 4 2 4 5 4 6 7 7 5 5 12 10 12 15 18 17 16 17 20 21 20 18 15 15 14 22 24 25 19 14 13 13 10 12 16 11 10
3 3 1 2 2 4 4 3 3 2 3 3 4 4 3 3 5 3 4 8 4 5 5 7 7 8 8 10 11 11 13 12 14 17 20 18 11 18 19 17 16 19 22 20 20 20 19 17 14 13 11 10 12 10
2 1 4 3 2 2 3 3 4 4 3 3 6 4 3 2 3 2 4 4 4 4 4 6 8 8 8 9 9 9 10 15 16 13 15 2 14 17 23 21 22 23 22 21 21 21 21 16 15 15 12 10 8 8
2 2 3 3 2 2 1 1 2 1 2 3 3 2 3 3 4 4 5 5 4 5 6 7 9 9 9 8 9 7 8 12 16 12 12 8 14 18 25 24 24 25 25 25 22 21 21 20 15 14 11 7 7 5
2 3 1 2 1 2 2 4 2 2 4 3 2 4 3 3 5 5 5 5 5 6 6 6 6 8 8 9 9 11 8 10 12 12 10 9 17 23 24 24 27 26 26 25 24 24 20 20 17 9 6 7 8 8
1 1 2 2 2 3 3 2 1 1 1 2 4 3 4 4 5 5 5 4 4 5 6 6 7 8 9 9 10 11 10 9 14 13 13 16 18 21 23 24 25 24 24 23 23 22 19 16 14 10 6 8 9 9
2 3 1 1 3 2 0 1 1 1 3 2 3 3 4 4 3 3 3 5 4 5 6 7 7 9 10 9 9 10 11 13 15 17 18 17 18 22 23 25 23 23 24 24 19 19 15 12 10 8 10 10 9 9
2 2 2 1 0 1 1 2 1 1 2 2 3 3 3 4 3 4 3 4 4 4 5 7 8 9 10 6 10 11 11 15 16 16 17 19 20 23 25 23 21 20 21 23 18 14 10 9 8 9 8 8 7 7
Wind_Direction
175 175 173 175 173 172 174 174 172 165 155 137 98 66 51 58 82 74 61 48 13 57 75 7 10 153 54 186 136 133 122 135 80 103 153 205 174 227 175 200 163 170 160 192 201 237 261 308 342 132 345 351 33 15
174 173 176 174 174 173 173 173 170 166 157 139 112 75 50 47 82 80 95 73 76 63 80 60 57 43 43 11 165 173 212 142 163 128 168 151 190 347 23 222 211 201 183 190 185 215 210 110 127 86 63 70 39 344
171 173 173 173 173 174 172 171 169 165 159 148 127 87 57 46 63 71 82 29 75 79 123 171 124 44 40 27 49 140 1 221 152 43 136 167 183 173 176 227 282 276 282 233 207 250 276 55 83 95 64 18 347 236
138 164 169 172 172 170 175 174 172 167 163 157 145 108 70 60 73 68 86 22 39 72 113 127 128 126 2 35 63 43 107 72 84 98 116 151 174 204 191 257 277 248 297 276 269 269 286 113 123 118 33 131 228 251
84 102 147 163 172 176 176 178 178 177 174 171 167 146 104 84 86 72 75 50 56 339 161 139 80 73 27 106 160 133 138 140 118 101 128 204 225 322 86 16 241 245 253 250 261 57 215 108 137 120 167 198 87 339
70 77 85 99 161 182 183 178 180 182 179 180 171 149 142 122 109 156 163 58 29 24 97 111 77 90 154 199 187 186 201 217 213 129 197 256 213 170 157 224 252 259 289 332 22 84 74 112 154 189 212 117 352 328
68 67 73 77 84 115 186 193 185 183 178 179 172 162 145 112 30 14 41 323 113 76 84 75 192 50 312 184 80 77 56 31 314 216 164 220 241 218 176 226 238 269 259 277 99 114 103 162 169 175 165 231 332 332
70 64 66 67 62 69 83 177 200 194 182 181 185 182 171 134 75 239 26 115 96 96 57 145 167 246 223 66 132 348 73 7 208 3 59 210 52 40 248 241 253 250 214 116 128 168 163 193 164 180 91 356 339 335
60 60 55 55 56 52 58 89 182 198 193 186 187 183 170 164 188 177 133 116 49 352 201 131 168 192 132 66 49 49 114 142 30 220 215 212 175 221 231 243 243 185 160 169 161 156 141 153 107 51 352 339 340 336
54 53 51 51 48 28 27 57 161 183 188 182 170 159 328 158 163 124 76 37 347 241 123 173 185 169 158 149 156 108 351 230 215 220 142 218 251 266 280 269 248 162 161 144 158 168 118 89 327 347 336 337 346 332
49 48 50 57 46 36 22 60 131 142 140 137 93 84 102 122 103 43 157 187 179 246 188 212 186 148 186 144 155 191 173 178 239 171 220 233 253 226 217 168 134 104 127 155 104 87 85 53 345 325 340 359 331 306
49 45 52 58 50 43 68 98 128 99 106 121 112 108 96 49 41 193 183 117 203 219 105 129 64 66 59 310 128 185 175 160 243 145 206 257 253 101 129 137 136 141 138 118 107 86 33 341 346 13 338 309 311 306
46 45 48 52 66 67 77 94 101 103 93 67 54 55 48 71 170 204 194 228 222 104 163 176 92 112 99 57 85 159 187 207 124 164 231 239 106 128 137 138 140 100 72 59 37 11 353 332 333 316 300 300 302 299
40 44 45 53 68 107 100 89 70 52 51 60 82 95 335 148 69 42 339 23 36 75 100 93 83 107 138 109 131 198 105 203 202 216 211 112 124 136 139 131 159 99 91 61 330 306 303 295 294 299 295 299 299 293
48 36 48 57 59 127 147 145 42 38 81 84 191 89 84 92 37 356 293 63 347 47 65 68 58 75 91 122 98 122 176 216 234 207 58 58 61 92 90 95 96 110 151 256 318 322 316 307 298 296 294 294 289 286
55 73 77 89 107 100 143 90 43 26 26 94 84 136 117 166 125 72 32 79 28 357 40 27 78 154 79 54 190 205 251 214 80 48 59 71 68 79 87 86 70 357 334 319 311 304 300 291 282 280 286 285 291 291
56 75 136 127 128 125 100 62 43 25 73 33 107 44 93 81 96 90 184 85 66 49 66 7 36 45 238 36 35 341 12 66 55 81 55 106 125 145 121 84 297 294 286 283 286 286 285 290 292 292 286 287 281 277
49 7 169 153 132 102 53 54 80 348 57 95 134 125 55 6 102 81 57 63 34 62 344 70 182 133 220 266 164 82 104 96 47 86 132 121 91 40 348 326 307 311 306 301 296 295 290 285 275 274 271 276 272 284
351 4 197 185 140 86 54 21 304 150 79 93 75 92 73 92 62 52 61 47 60 16 77 18 210 220 201 91 91 81 46 10 70 169 174 191 224 243 258 292 297 293 286 287 291 289 289 287 283 281 279 280 278 289
241 25 231 190 166 98 109 153 237 261 148 119 116 134 61 60 66 33 22 11 82 148 155 218 251 23 49 83 49 64 79 112 30 321 297 305 307 298 244 263 275 287 294 295 292 290 287 287 286 286 284 280 277 282
222 178 161 168 65 67 308 180 114 69 125 123 107 145 96 141 108 102 74 355 356 248 239 226 234 246 137 73 6 336 319 307 287 292 293 294 304 318 309 296 286 281 275 284 292 293 290 283 291 296 299 280 290 303
152 186 172 103 98 111 147 315 136 143 109 116 174 133 129 143 137 149 106 202 232 235 238 262 285 319 191 189 228 230 270 303 298 293 291 282 274 275 269 274 294 290 291 288 288 289 294 301 306 299 293 285 301 300
163 155 135 158 162 158 114 249 156 170 133 142 178 117 143 140 93 185 215 236 247 284 314 305 7 26 296 328 352 317 296 293 305 312 321 307 294 283 283 283 283 283 281 283 284 287 294 303 313 301 302 305 305 298
136 101 142 145 252 115 153 161 167 109 118 176 162 150 132 141 170 215 239 220 34 79 21 334 268 258 182 189 263 44 31 3 337 334 349 337 312 297 294 296 298 295 295 297 296 291 290 300 302 292 297 304 304 297
193 147 221 149 214 148 135 136 152 166 148 176 153 151 142 172 192 207 235 138 61 43 21 7 345 28 11 34 32 23 31 20 357 335 329 332 332 330 324 318 316 316 311 310 297 273 275 283 291 291 289 296 290 290
161 144 273 143 151 164 141 143 169 157 132 146 142 96 173 193 213 229 125 69 68 47 22 22 6 4 21 23 2 360 347 348 339 323 325 332 319 308 306 309 321 346 354 349 348 338 323 306 290 286 297 292 298 309
160 157 151 310 83 105 105 68 65 118 180 161 154 160 158 207 220 93 109 31 60 31 15 34 21 12 356 351 351 343 342 347 341 319 314 319 54 36 22 3 356 346 344 343 344 342 334 330 325 317 313 319 307 307
61 198 156 154 100 39 112 131 168 176 166 147 140 174 198 227 62 59 62 52 24 357 26 37 35 13 10 0 351 352 4 354 346 348 349 127 19 19 7 355 349 347 346 343 340 336 334 329 329 325 331 341 351 4
68 61 80 75 100 104 122 129 147 109 68 155 180 173 106 69 35 64 59 24 14 21 39 27 26 18 26 14 18 32 25 13 6 4 359 346 346 345 346 344 341 341 339 337 337 334 331 328 321 314 309 330 350 0
79 316 91 88 109 104 61 7 58 26 358 28 78 118 112 102 71 52 53 48 44 42 35 38 33 28 18 10 2 1 22 41 24 2 344 336 330 328 333 335 333 333 332 331 329 330 333 331 330 333 7 28 24 15
62 30 75 54 76 61 45 8 223 166 37 53 38 43 95 120 120 70 50 37 59 55 39 32 23 24 9 354 352 343 336 347 345 339 335 326 324 328 329 328 328 328 326 327 325 324 327 334 334 357 40 52 43 33
53 46 68 114 109 92 14 11 48 239 155 202 152 116 149 175 123 102 27 6 63 58 39 22 10 356 348 334 334 329 318 324 329 331 331 329 328 327 325 326 328 325 324 327 326 325 335 344 357 18 28 46 45 38
58 40 35 8 251 163 69 307 235 232 195 204 90 48 50 9 82 97 97 56 57 41 8 351 338 331 330 333 323 331 339 328 325 327 328 327 327 326 327 328 327 322 328 331 331 330 346 357 16 30 37 41 43 37